Location: Usti nad Labem
(50.6670°N, 14.0330°E)
Time: 16:18:50
(UTC+02:00)

ISS - Visible Passes

Search period start: 31 May 2016 00:00
Search period end: 10 June 2016 00:00
Orbit: 402 x 404 km, 51.6° (Epoch: 30 May)

Date Brightness Start Highest point End Pass type
(mag) Time Alt. Az. Time Alt. Az. Time Alt. Az.
31 May -3.1 00:14:50 10° W 00:18:06 72° N 00:21:22 10° E visible
31 May -3.4 01:51:20 10° WNW 01:54:33 58° SSW 01:56:20 23° SE visible
31 May -1.0 03:28:36 10° WSW 03:28:42 10° WSW 03:28:42 10° WSW visible
31 May -3.1 23:22:01 10° W 23:25:17 73° N 23:28:33 10° E visible
01 Jun -3.5 00:58:32 10° WNW 01:01:48 79° SSW 01:03:25 27° ESE visible
01 Jun -1.2 02:35:17 10° W 02:35:57 14° W 02:35:57 14° W visible
01 Jun -3.2 22:29:12 10° W 22:32:28 81° N 22:35:45 10° ENE visible
02 Jun -3.3 00:05:44 10° WNW 00:09:01 83° N 00:11:37 15° E visible
02 Jun -2.0 01:42:17 10° W 01:44:10 26° WSW 01:44:10 26° WSW visible
02 Jun -3.2 23:12:56 10° W 23:16:12 74° N 23:19:29 10° E visible
03 Jun -3.2 00:49:26 10° W 00:52:37 51° SSW 00:52:42 51° SSW visible
03 Jun -3.1 22:20:06 10° W 22:23:22 72° N 22:26:39 10° E visible
03 Jun -3.5 23:56:37 10° WNW 23:59:52 73° SSW 00:01:21 29° ESE visible
04 Jun -0.9 01:33:29 10° W 01:33:56 12° W 01:33:56 12° W visible
04 Jun -3.4 23:03:48 10° WNW 23:07:05 88° NNE 23:10:06 12° ESE visible
05 Jun -2.1 00:40:24 10° W 00:42:41 28° SW 00:42:41 28° SW visible
05 Jun -3.2 22:10:59 10° W 22:14:16 76° N 22:17:32 10° E visible
05 Jun -3.0 23:47:30 10° W 23:50:39 46° SSW 23:51:29 36° SSE visible
06 Jun -3.4 22:54:38 10° WNW 22:57:54 66° SSW 23:00:20 16° ESE visible
07 Jun -1.2 00:31:39 10° W 00:32:55 16° WSW 00:32:55 16° WSW visible
07 Jun -3.3 22:01:49 10° WNW 22:05:07 87° S 22:08:23 10° ESE visible
07 Jun -2.2 23:38:28 10° W 23:41:18 27° SSW 23:41:48 26° SSW visible
08 Jun -2.7 22:45:31 10° W 22:48:37 41° SSW 22:50:44 17° SE visible
09 Jun -1.3 23:29:49 10° WSW 23:31:50 15° SW 23:32:17 15° SSW visible
